Weather History for KPKV - March, 2013

Change the Weather History Date:

Sunday, March 17, 2013

  Actual Average (KVCT) Record (KVCT)
Temperature  
Mean Temperature 70 °F 64 °F  
Max Temperature 79 °F 74 °F 87 °F (1925)
Min Temperature 62 °F 53 °F 32 °F (1913)
Degree Days  
Heating Degree Days 0 4  
Month to date heating degree days 86  
Since 1 July heating degree days 1179  
Cooling Degree Days 6 2  
Month to date cooling degree days 33  
Year to date cooling degree days 71  
Growing Degree Days 20 (Base 50)    
Moisture  
Dew Point 64 °F    
Average Humidity 80    
Maximum Humidity 96    
Minimum Humidity 60    
Precipitation  
Precipitation 0.00 in 0.08 in 4.01 in (1997)
Month to date precipitation 1.42  
Year to date precipitation 6.02  
Snow  
Snow 0.00 in - - ()
Month to date snowfall  
Since 1 July snowfall  
Snow Depth -    
Sea Level Pressure  
Sea Level Pressure 29.77 in    
Wind  
Wind Speed 12 mph (SSE)    
Max Wind Speed 24 mph    
Max Gust Speed 30 mph    
Visibility 9 miles    
Events      
T = Trace of Precipitation, MM = Missing Value Source: NWS Daily Summary

Daily Weather History Graph

Daily Weather History Graph

Search for Another Location

Airport or City:

Trip Planner

Search our weather history database for the weather conditions in past years. The results will help you decide how hot, cold, wet, or windy it might be!

Date:

Astronomy

Mar. 17, 2013 Rise Set
Actual Time 7:33 AM CDT 7:36 PM CDT
Civil Twilight 7:10 AM CDT 8:00 PM CDT
Nautical Twilight 6:42 AM CDT 8:27 PM CDT
Astronomical Twilight 6:15 AM CDT 8:55 PM CDT
Moon 11:13 AM CDT (3/17) 12:20 AM CDT (3/17)
Length of Visible Light 12h 49m
Length of Day
12h 02m
Waxing Crescent, 31% of the Moon is Illuminated
Mar 17
Waxing Crescent
Mar 19
First Quarter
Mar 27
Full
Apr 2
Last Quarter
Apr 10
New

Hourly Weather History & Observations

Time (CDT) Temp. Dew Point Humidity Pressure Visibility Wind Dir Wind Speed Gust Speed Precip Events Conditions
12:15 AM 66.4 °F 61.5 °F 84% 29.86 in 10.0 mi South 11.5 mph - N/A   Clear
12:35 AM 66.4 °F 61.7 °F 85% 29.85 in 10.0 mi South 11.5 mph - N/A   Clear
12:55 AM 66.4 °F 61.7 °F 85% 29.85 in 10.0 mi South 9.2 mph - N/A   Clear
1:15 AM 66.2 °F 61.7 °F 85% 29.85 in 10.0 mi South 10.4 mph - N/A   Clear
1:35 AM 66.0 °F 61.7 °F 86% 29.84 in 10.0 mi South 9.2 mph - N/A   Clear
1:55 AM 66.0 °F 62.1 °F 87% 29.84 in 10.0 mi South 8.1 mph - N/A   Scattered Clouds
2:15 AM 66.2 °F 62.2 °F 87% 29.83 in 10.0 mi South 10.4 mph - N/A   Mostly Cloudy
2:35 AM 66.4 °F 62.6 °F 88% 29.82 in 10.0 mi South 11.5 mph 16.1 mph N/A   Overcast
2:55 AM 67.1 °F 62.8 °F 86% 29.81 in 10.0 mi South 11.5 mph - N/A   Overcast
3:15 AM 67.1 °F 62.8 °F 86% 29.80 in 10.0 mi South 13.8 mph - N/A   Mostly Cloudy
3:35 AM 67.1 °F 63.0 °F 87% 29.79 in 10.0 mi South 13.8 mph 19.6 mph N/A   Scattered Clouds
3:55 AM 67.3 °F 63.1 °F 87% 29.79 in 10.0 mi South 12.7 mph - N/A   Clear
4:15 AM 67.1 °F 63.1 °F 87% 29.79 in 10.0 mi South 11.5 mph - N/A   Clear
4:35 AM 67.1 °F 63.1 °F 87% 29.78 in 10.0 mi South 10.4 mph - N/A   Scattered Clouds
4:55 AM 66.4 °F 63.0 °F 89% 29.79 in 10.0 mi South 8.1 mph - N/A   Clear
5:15 AM 65.8 °F 62.8 °F 90% 29.79 in 10.0 mi South 8.1 mph - N/A   Clear
5:35 AM 65.5 °F 62.6 °F 90% 29.79 in 10.0 mi South 5.8 mph - N/A   Clear
5:55 AM 65.3 °F 62.6 °F 91% 29.79 in 10.0 mi South 5.8 mph - N/A   Clear
6:15 AM 64.8 °F 62.2 °F 92% 29.79 in 10.0 mi South 5.8 mph - N/A   Clear
6:55 AM 63.5 °F 61.2 °F 92% 29.80 in 7.0 mi South 4.6 mph - N/A   Clear
7:15 AM 62.8 °F 61.0 °F 94% 29.80 in 7.0 mi SSE 5.8 mph - N/A   Clear
7:35 AM 62.1 °F 60.4 °F 94% 29.80 in 7.0 mi SSE 4.6 mph - N/A   Clear
7:55 AM 62.1 °F 60.4 °F 94% 29.80 in 5.0 mi SSE 5.8 mph - N/A   Clear
8:15 AM 63.7 °F 62.4 °F 96% 29.80 in 7.0 mi SSE 8.1 mph - N/A   Clear
8:35 AM 65.5 °F 63.5 °F 93% 29.81 in 7.0 mi SSE 6.9 mph - N/A   Clear
8:55 AM 66.0 °F 63.5 °F 92% 29.81 in 7.0 mi SSE 8.1 mph - N/A   Clear
9:15 AM 68.7 °F 64.9 °F 88% 29.82 in 7.0 mi SSE 10.4 mph - N/A   Clear
9:35 AM 70.9 °F 64.9 °F 81% 29.82 in 10.0 mi South 16.1 mph 20.7 mph N/A   Clear
9:55 AM 72.7 °F 64.2 °F 75% 29.82 in 10.0 mi South 20.7 mph - N/A   Clear
10:15 AM 73.8 °F 64.4 °F 72% 29.82 in 10.0 mi South 18.4 mph 23.0 mph N/A   Mostly Cloudy
10:35 AM 73.8 °F 64.4 °F 72% 29.82 in 10.0 mi South 17.3 mph 28.8 mph N/A   Overcast
11:15 AM 74.3 °F 63.7 °F 69% 29.83 in 10.0 mi SSW 21.9 mph 27.6 mph N/A   Overcast
11:35 AM 74.8 °F 63.5 °F 68% 29.82 in 10.0 mi South 24.2 mph - N/A   Mostly Cloudy
11:55 AM 74.7 °F 63.5 °F 68% 29.82 in 10.0 mi SSW 24.2 mph 28.8 mph N/A   Mostly Cloudy
12:15 PM 77.4 °F 64.0 °F 63% 29.81 in 10.0 mi South 23.0 mph 28.8 mph N/A   Scattered Clouds
12:35 PM 76.5 °F 63.5 °F 64% 29.81 in 10.0 mi SSW 24.2 mph 28.8 mph N/A   Mostly Cloudy
12:55 PM 76.5 °F 63.7 °F 64% 29.80 in 10.0 mi South 19.6 mph 27.6 mph N/A   Mostly Cloudy
1:15 PM 79.0 °F 64.2 °F 60% 29.80 in 10.0 mi South 18.4 mph 29.9 mph N/A   Mostly Cloudy
1:35 PM 77.2 °F 64.0 °F 64% 29.79 in 10.0 mi South 20.7 mph 27.6 mph N/A   Mostly Cloudy
1:55 PM 77.0 °F 63.9 °F 64% 29.78 in 10.0 mi SSW 20.7 mph 26.5 mph N/A   Mostly Cloudy
2:15 PM 78.1 °F 64.2 °F 62% 29.77 in 10.0 mi South 17.3 mph 24.2 mph N/A   Overcast
2:35 PM 78.4 °F 64.4 °F 62% 29.75 in 10.0 mi South 19.6 mph 25.3 mph N/A   Overcast
2:55 PM 79.2 °F 64.4 °F 60% 29.74 in 10.0 mi South 20.7 mph 26.5 mph N/A   Mostly Cloudy
3:15 PM 77.0 °F 64.8 °F 66% 29.74 in 10.0 mi South 13.8 mph 21.9 mph N/A   Overcast
3:35 PM 76.3 °F 64.6 °F 67% 29.73 in 10.0 mi South 16.1 mph 19.6 mph N/A   Overcast
3:55 PM 77.4 °F 64.6 °F 65% 29.72 in 10.0 mi South 17.3 mph 21.9 mph N/A   Overcast
4:15 PM 75.9 °F 64.9 °F 69% 29.72 in 10.0 mi South 16.1 mph - N/A   Overcast
4:35 PM 76.6 °F 64.6 °F 66% 29.70 in 10.0 mi South 16.1 mph 20.7 mph N/A   Mostly Cloudy
4:55 PM 76.1 °F 64.4 °F 67% 29.70 in 10.0 mi South 16.1 mph 21.9 mph N/A   Mostly Cloudy
5:15 PM 76.1 °F 64.4 °F 67% 29.69 in 10.0 mi South 17.3 mph 23.0 mph N/A   Scattered Clouds
5:35 PM 75.6 °F 64.8 °F 69% 29.70 in 10.0 mi SSE 17.3 mph - N/A   Scattered Clouds
5:55 PM 75.2 °F 64.9 °F 70% 29.70 in 10.0 mi SSE 17.3 mph - N/A   Mostly Cloudy
6:15 PM 74.5 °F 65.5 °F 73% 29.70 in 10.0 mi SSE 15.0 mph 20.7 mph N/A   Overcast
6:35 PM 73.8 °F 66.0 °F 77% 29.70 in 10.0 mi SSE 15.0 mph - N/A   Overcast
6:55 PM 73.0 °F 66.2 °F 79% 29.70 in 10.0 mi SSE 16.1 mph - N/A   Overcast
7:15 PM 72.3 °F 66.4 °F 82% 29.70 in 7.0 mi SSE 12.7 mph 19.6 mph N/A   Overcast
7:35 PM 71.6 °F 66.4 °F 84% 29.70 in 7.0 mi SSE 15.0 mph - N/A   Overcast
7:55 PM 71.1 °F 66.7 °F 86% 29.71 in 7.0 mi SSE 13.8 mph - N/A   Overcast
8:15 PM 70.9 °F 66.7 °F 87% 29.72 in 7.0 mi SSE 10.4 mph - N/A   Overcast
8:35 PM 70.7 °F 67.1 °F 88% 29.72 in 7.0 mi SSE 11.5 mph - N/A   Overcast
9:15 PM 70.2 °F 67.1 °F 90% 29.73 in 7.0 mi SE 11.5 mph - N/A   Overcast
9:35 PM 70.2 °F 66.9 °F 89% 29.74 in 7.0 mi SSE 10.4 mph - N/A   Overcast
9:55 PM 70.2 °F 67.1 °F 90% 29.74 in 7.0 mi SSE 9.2 mph - N/A   Overcast
10:15 PM 70.0 °F 66.9 °F 90% 29.75 in 7.0 mi SSE 9.2 mph - N/A   Overcast
10:35 PM 70.0 °F 67.1 °F 91% 29.75 in 7.0 mi SSE 9.2 mph - N/A   Overcast
10:55 PM 69.8 °F 67.1 °F 91% 29.75 in 7.0 mi SSE 10.4 mph - N/A   Overcast
11:15 PM 70.0 °F 67.1 °F 91% 29.75 in 7.0 mi SSE 11.5 mph - N/A   Overcast
11:35 PM 70.0 °F 67.1 °F 91% 29.75 in 7.0 mi SSE 9.2 mph - N/A   Overcast
11:55 PM 70.0 °F 66.9 °F 90% 29.75 in 7.0 mi SSE 11.5 mph - N/A   Overcast